User: anonymous   Login
Location: Unspecified
(0.0000°N, 0.0000°E)
Time: 04:41:39
(UTC+02:00)
Language:

Meteor PRIRODA - Orbit

View from above orbital plane
View from above orbital plane
View from above satellite
View from above satellite

Ground track
Ground track

The orbit data is extracted from the following two-line orbital elements,

1 12585U 81065A   17267.54798609 +.00000931 +00000-0 +45665-4 0  9995
2 12585 097.4415 245.4864 0016222 056.6511 303.6275 15.20500175971552
Epoch (UTC): 24 September 2017 13:09:05
Eccentricity: 0.0016222
inclination: 97.4415°
perigee height: 493 km
apogee height: 515 km
right ascension of ascending node: 245.4864°
argument of perigee: 56.6511°
revolutions per day: 15.20500175
mean anomaly at epoch: 303.6275°
orbit number at epoch: 97155

The dashed part of the orbit path shows where the satellite is in the earth's shadow,  

DLR